Weather History for KFET - August, 2014

Change the Weather History Date:

Wednesday, August 13, 2014

  Actual Average Record
Temperature  
Mean Temperature 68 °F -  
Max Temperature 82 °F 85 °F 100 °F (1965)
Min Temperature 53 °F 62 °F 46 °F (2004)
Cooling Degree Days 2    
Growing Degree Days 18 (Base 50)    
Moisture  
Dew Point 55 °F    
Average Humidity 66    
Maximum Humidity 95    
Minimum Humidity 36    
Precipitation  
Precipitation 0.00 in - - ()
Sea Level Pressure  
Sea Level Pressure 30.13 in    
Wind  
Wind Speed 2 mph (SSW)    
Max Wind Speed 7 mph    
Max Gust Speed -    
Visibility 10 miles    
Events      
Averages and records for this station are not official NWS values.
T = Trace of Precipitation, MM = Missing Value Source: NWS Daily Summary

Daily Weather History Graph

Daily Weather History Graph

Search for Another Location

Airport or City:

Trip Planner

Search our weather history database for the weather conditions in past years. The results will help you decide how hot, cold, wet, or windy it might be!

Date:

Astronomy

Aug. 13, 2014 Rise Set
Actual Time 6:33 AM CDT 8:28 PM CDT
Civil Twilight 6:03 AM CDT 8:57 PM CDT
Nautical Twilight 5:26 AM CDT 9:34 PM CDT
Astronomical Twilight 4:46 AM CDT 10:13 PM CDT
Moon 10:10 PM CDT (8/13) 10:05 AM CDT (8/13)
Length of Visible Light 14h 54m
Length of Day
13h 55m
Waning Gibbous, 87% of the Moon is Illuminated
Aug 13
Waning Gibbous
Aug 17
Last Quarter
Aug 25
New
Sep 2
First Quarter
Sep 8
Full

Hourly Weather History & Observations

Time (CDT) Temp. Heat Index Dew Point Humidity Pressure Visibility Wind Dir Wind Speed Gust Speed Precip Events Conditions
12:15 AM 60.6 °F - 56.7 °F 87% 30.12 in 10.0 mi Calm Calm - N/A   Clear
12:35 AM 60.3 °F - 56.8 °F 88% 30.12 in 10.0 mi Calm Calm - N/A   Clear
12:55 AM 59.7 °F - 56.3 °F 88% 30.12 in 10.0 mi Calm Calm - N/A   Clear
1:15 AM 58.8 °F - 55.4 °F 88% 30.13 in 10.0 mi Calm Calm - N/A   Clear
1:35 AM 58.6 °F - 55.9 °F 91% 30.13 in 10.0 mi Calm Calm - N/A   Clear
1:55 AM 57.6 °F - 54.9 °F 91% 30.13 in 10.0 mi Calm Calm - N/A   Clear
2:15 AM 57.0 °F - 54.7 °F 92% 30.13 in 10.0 mi Calm Calm - N/A   Clear
2:35 AM 57.0 °F - 54.3 °F 91% 30.13 in 10.0 mi Calm Calm - N/A   Clear
2:55 AM 58.1 °F - 55.8 °F 92% 30.13 in 10.0 mi Calm Calm - N/A   Clear
3:15 AM 57.6 °F - 55.8 °F 94% 30.13 in 10.0 mi Calm Calm - N/A   Clear
3:35 AM 55.6 °F - 53.6 °F 93% 30.14 in 10.0 mi WNW 3.5 mph - N/A   Clear
3:55 AM 57.2 °F - 55.4 °F 94% 30.14 in 10.0 mi Calm Calm - N/A   Clear
4:15 AM 56.5 °F - 54.7 °F 94% 30.14 in 10.0 mi Calm Calm - N/A   Clear
4:35 AM 56.3 °F - 54.3 °F 93% 30.14 in 10.0 mi Calm Calm - N/A   Clear
4:55 AM 55.8 °F - 53.8 °F 93% 30.14 in 10.0 mi Calm Calm - N/A   Clear
5:15 AM 55.9 °F - 53.8 °F 92% 30.14 in 10.0 mi Calm Calm - N/A   Clear
5:35 AM 55.4 °F - 53.4 °F 93% 30.14 in 10.0 mi Calm Calm - N/A   Clear
6:15 AM 55.4 °F - 53.4 °F 93% 30.15 in 10.0 mi Calm Calm - N/A   Clear
6:35 AM 53.6 °F - 51.8 °F 94% 30.16 in 10.0 mi Calm Calm - N/A   Clear
6:55 AM 55.0 °F - 53.6 °F 95% 30.16 in 10.0 mi Calm Calm - N/A   Clear
7:35 AM 56.8 °F - 55.0 °F 94% 30.16 in 7.0 mi Calm Calm - N/A   Clear
7:55 AM 59.7 °F - 57.6 °F 93% 30.16 in 7.0 mi Calm Calm - N/A   Clear
8:15 AM 62.2 °F - 58.5 °F 87% 30.16 in 10.0 mi Calm Calm - N/A   Clear
8:35 AM 64.6 °F - 59.7 °F 84% 30.16 in 10.0 mi Calm Calm - N/A   Clear
8:55 AM 68.7 °F - 57.7 °F 68% 30.16 in 10.0 mi SW 3.5 mph - N/A   Clear
9:35 AM 71.2 °F - 57.4 °F 61% 30.17 in 10.0 mi West 5.8 mph - N/A   Clear
9:55 AM 71.8 °F - 57.4 °F 60% 30.17 in 10.0 mi SW 5.8 mph - N/A   Clear
10:15 AM 73.2 °F - 57.4 °F 57% 30.17 in 10.0 mi SW 5.8 mph - N/A   Clear
10:35 AM 74.1 °F - 57.7 °F 56% 30.17 in 10.0 mi SSW 4.6 mph - N/A   Clear
10:55 AM 75.4 °F - 57.7 °F 54% 30.17 in 10.0 mi WSW 4.6 mph - N/A   Clear
11:15 AM 75.9 °F - 56.1 °F 50% 30.16 in 10.0 mi SW 4.6 mph - N/A   Clear
11:35 AM 76.3 °F - 55.6 °F 49% 30.16 in 10.0 mi Calm Calm - N/A   Clear
11:55 AM 77.4 °F - 55.8 °F 47% 30.15 in 10.0 mi Calm Calm - N/A   Clear
12:15 PM 77.9 °F - 55.6 °F 46% 30.15 in 10.0 mi West 4.6 mph - N/A   Clear
12:35 PM 78.4 °F - 55.9 °F 46% 30.15 in 10.0 mi SW 5.8 mph - N/A   Clear
12:55 PM 79.5 °F - 56.7 °F 45% 30.15 in 10.0 mi SW 6.9 mph - N/A   Clear
1:15 PM 79.2 °F - 54.9 °F 43% 30.14 in 10.0 mi West 4.6 mph - N/A   Clear
1:35 PM 79.5 °F - 56.3 °F 45% 30.13 in 10.0 mi South 6.9 mph - N/A   Clear
1:55 PM 79.5 °F - 54.9 °F 42% 30.13 in 10.0 mi Calm Calm - N/A   Clear
2:15 PM 80.4 °F 80.4 °F 55.0 °F 42% 30.13 in 10.0 mi SSW 6.9 mph - N/A   Clear
2:35 PM 80.1 °F 80.3 °F 56.1 °F 44% 30.12 in 10.0 mi SW 6.9 mph - N/A   Clear
2:55 PM 81.1 °F - 52.7 °F 37% 30.12 in 10.0 mi South 4.6 mph - N/A   Clear
3:15 PM 81.1 °F - 52.0 °F 36% 30.11 in 10.0 mi Calm Calm - N/A   Clear
3:35 PM 81.7 °F 81.0 °F 53.6 °F 38% 30.11 in 10.0 mi SSW 5.8 mph - N/A   Clear
3:55 PM 82.2 °F 81.4 °F 54.3 °F 38% 30.10 in 10.0 mi South 4.6 mph - N/A   Clear
4:15 PM 81.7 °F 81.0 °F 53.6 °F 38% 30.10 in 10.0 mi SSW 5.8 mph - N/A   Clear
4:35 PM 82.4 °F 81.6 °F 54.7 °F 38% 30.09 in 10.0 mi SSW 4.6 mph - N/A   Clear
5:15 PM 82.0 °F 81.2 °F 53.6 °F 37% 30.08 in 10.0 mi South 6.9 mph - N/A   Clear
5:35 PM 82.2 °F 81.6 °F 55.8 °F 40% 30.08 in 10.0 mi South 4.6 mph - N/A   Clear
5:55 PM 81.7 °F 81.0 °F 54.0 °F 38% 30.07 in 10.0 mi South 6.9 mph - N/A   Clear
6:15 PM 81.5 °F 80.8 °F 53.6 °F 38% 30.07 in 10.0 mi South 6.9 mph - N/A   Clear
6:35 PM 81.5 °F - 52.2 °F 36% 30.07 in 10.0 mi South 4.6 mph - N/A   Clear
6:55 PM 81.0 °F - 52.9 °F 38% 30.07 in 10.0 mi South 4.6 mph - N/A   Clear
7:55 PM 77.4 °F - 56.8 °F 49% 30.06 in 10.0 mi SSE 4.6 mph - N/A   Clear
11:15 PM 67.8 °F - 58.3 °F 71% 30.10 in 10.0 mi ESE 3.5 mph - N/A   Clear
11:35 PM 67.6 °F - 58.1 °F 71% 30.10 in 10.0 mi ESE 3.5 mph - N/A   Clear
11:55 PM 68.4 °F - 58.3 °F 70% 30.10 in 10.0 mi Calm Calm - N/A   Clear